NDF4201 EPKK-EDDH

Flight info

Callsign NDF4201
Flight time 1h 22m
Altitude 38000
Route LUMVE2J LUMVE L619 NUDRO L619 ADVAB L980 SUBIX DCT VIBIS L619 BUMIL M748 RARUP RARUP6A
Aircraft A339/H-SADE1E2E3GHIJ3J5M1P2RWXY/LB2D1

Departure

Time 2026-04-26 10:24
Airport Kraków John Paul II International Airport (EPKK)

Arrival

Time 2026-04-26 11:46
Airport Hamburg Helmut Schmidt Airport (EDDH)
Time Latitude Longitude Altitude Speed Heading
2026-04-26 10:01 50.07328 19.80108 797 ft 0 kts 168°
2026-04-26 10:14 50.07329 19.80108 772 ft 2 kts 168°
2026-04-26 10:14 50.07355 19.80099 799 ft 4 kts 162°
2026-04-26 10:14 50.07380 19.80086 799 ft 4 kts 146°
2026-04-26 10:14 50.07399 19.80066 799 ft 4 kts 110°
2026-04-26 10:15 50.07403 19.80038 799 ft 4 kts 78°
2026-04-26 10:15 50.07400 19.80017 799 ft 0 kts 78°
2026-04-26 10:19 50.07402 19.80031 799 ft 3 kts 78°
2026-04-26 10:19 50.07408 19.80078 799 ft 5 kts 78°
2026-04-26 10:19 50.07418 19.80147 799 ft 8 kts 78°
2026-04-26 10:20 50.07430 19.80236 799 ft 9 kts 78°
2026-04-26 10:20 50.07440 19.80308 799 ft 11 kts 78°
2026-04-26 10:20 50.07513 19.80398 799 ft 11 kts 18°
2026-04-26 10:20 50.07591 19.80417 799 ft 12 kts 359°
2026-04-26 10:21 50.07671 19.80394 799 ft 12 kts 347°
2026-04-26 10:21 50.07752 19.80366 799 ft 12 kts 347°
2026-04-26 10:21 50.07836 19.80336 799 ft 13 kts 347°
2026-04-26 10:21 50.07923 19.80306 799 ft 13 kts 347°
2026-04-26 10:22 50.08000 19.80253 798 ft 11 kts 309°
2026-04-26 10:22 50.08004 19.80143 799 ft 10 kts 261°
2026-04-26 10:22 50.08000 19.80111 799 ft 0 kts 259°
2026-04-26 10:23 50.07993 19.80056 799 ft 27 kts 259°
2026-04-26 10:23 50.07908 19.79426 799 ft 92 kts 257°
2026-04-26 10:23 50.07733 19.78176 798 ft 141 kts 258°
2026-04-26 10:23 50.07467 19.76532 1171 ft 161 kts 262°
2026-04-26 10:24 50.07212 19.74820 2181 ft 160 kts 262°
2026-04-26 10:24 50.06988 19.73158 2859 ft 162 kts 263°
2026-04-26 10:24 50.06753 19.71332 3209 ft 181 kts 263°
2026-04-26 10:24 50.06492 19.69311 3517 ft 201 kts 263°
2026-04-26 10:25 50.06193 19.67064 3829 ft 223 kts 262°
2026-04-26 10:25 50.05846 19.64595 4260 ft 242 kts 261°
2026-04-26 10:25 50.05470 19.61986 4869 ft 251 kts 261°
2026-04-26 10:25 50.05087 19.59326 5650 ft 253 kts 261°
2026-04-26 10:26 50.04702 19.56632 6441 ft 256 kts 262°
2026-04-26 10:26 50.04317 19.53909 7170 ft 259 kts 262°
2026-04-26 10:26 50.03925 19.51155 7876 ft 263 kts 262°
2026-04-26 10:26 50.03533 19.48400 8631 ft 265 kts 263°
2026-04-26 10:27 50.03130 19.45577 9390 ft 269 kts 263°
2026-04-26 10:27 50.02806 19.42711 10101 ft 268 kts 272°
2026-04-26 10:27 50.02986 19.39847 10609 ft 271 kts 289°
2026-04-26 10:27 50.03701 19.37050 10795 ft 288 kts 298°
2026-04-26 10:28 50.04573 19.34131 11106 ft 303 kts 298°
2026-04-26 10:28 50.05444 19.31123 11784 ft 305 kts 297°
2026-04-26 10:28 50.06300 19.28087 12496 ft 307 kts 297°
2026-04-26 10:28 50.07152 19.25026 13166 ft 309 kts 297°
2026-04-26 10:29 50.08003 19.21946 13884 ft 311 kts 297°
2026-04-26 10:29 50.08858 19.18844 14499 ft 313 kts 297°
2026-04-26 10:29 50.09721 19.15718 15094 ft 315 kts 297°
2026-04-26 10:29 50.10593 19.12559 15675 ft 318 kts 297°
2026-04-26 10:30 50.11469 19.09379 16256 ft 321 kts 297°
2026-04-26 10:30 50.12351 19.06173 16846 ft 323 kts 296°
2026-04-26 10:30 50.13240 19.02934 17431 ft 325 kts 296°
2026-04-26 10:30 50.14135 18.99671 17990 ft 329 kts 296°
2026-04-26 10:31 50.15025 18.96424 18560 ft 331 kts 296°
2026-04-26 10:31 50.15941 18.93075 19090 ft 333 kts 296°
2026-04-26 10:31 50.16839 18.89788 19603 ft 335 kts 296°
2026-04-26 10:31 50.17759 18.86416 20094 ft 338 kts 296°
2026-04-26 10:32 50.18860 18.83192 20593 ft 338 kts 307°
2026-04-26 10:32 50.20519 18.80602 21123 ft 340 kts 323°
2026-04-26 10:32 50.22497 18.78541 21641 ft 343 kts 325°
2026-04-26 10:32 50.24528 18.76539 22130 ft 347 kts 326°
2026-04-26 10:33 50.26588 18.74533 22661 ft 349 kts 326°
2026-04-26 10:33 50.28639 18.72527 23198 ft 352 kts 326°
2026-04-26 10:33 50.30718 18.70482 23709 ft 355 kts 326°
2026-04-26 10:33 50.32818 18.68406 24126 ft 358 kts 325°
2026-04-26 10:34 50.34926 18.66316 24626 ft 359 kts 325°
2026-04-26 10:34 50.37046 18.64210 25107 ft 361 kts 325°
2026-04-26 10:34 50.39178 18.62088 25575 ft 363 kts 325°
2026-04-26 10:34 50.41316 18.59958 26006 ft 366 kts 324°
2026-04-26 10:35 50.43464 18.57816 26473 ft 367 kts 324°
2026-04-26 10:35 50.45630 18.55653 26928 ft 369 kts 324°
2026-04-26 10:35 50.47803 18.53482 27386 ft 371 kts 324°
2026-04-26 10:35 50.49989 18.51295 27794 ft 374 kts 324°
2026-04-26 10:36 50.52192 18.49088 28234 ft 376 kts 324°
2026-04-26 10:36 50.54401 18.46873 28669 ft 377 kts 324°
2026-04-26 10:36 50.56616 18.44644 29079 ft 379 kts 323°
2026-04-26 10:36 50.58741 18.42190 29439 ft 379 kts 318°
2026-04-26 10:37 50.60788 18.39534 29855 ft 381 kts 318°
2026-04-26 10:37 50.62823 18.36931 30260 ft 383 kts 318°
2026-04-26 10:37 50.64850 18.34348 30571 ft 386 kts 318°
2026-04-26 10:37 50.66947 18.31674 30885 ft 389 kts 318°
2026-04-26 10:38 50.69056 18.28981 31235 ft 391 kts 318°
2026-04-26 10:38 50.71179 18.26260 31547 ft 394 kts 317°
2026-04-26 10:38 50.73209 18.23336 31855 ft 395 kts 312°
2026-04-26 10:38 50.75045 18.20095 32149 ft 397 kts 308°
2026-04-26 10:39 50.76714 18.16615 32455 ft 399 kts 306°
2026-04-26 10:39 50.78392 18.13101 32738 ft 402 kts 306°
2026-04-26 10:39 50.80094 18.09569 32986 ft 404 kts 306°
2026-04-26 10:39 50.81781 18.06071 33209 ft 406 kts 306°
2026-04-26 10:40 50.83496 18.02503 33417 ft 408 kts 306°
2026-04-26 10:40 50.85219 17.98907 33611 ft 410 kts 306°
2026-04-26 10:40 50.86943 17.95301 33802 ft 411 kts 306°
2026-04-26 10:40 50.88669 17.91685 34022 ft 411 kts 306°
2026-04-26 10:41 50.90390 17.88073 34248 ft 411 kts 306°
2026-04-26 10:41 50.92113 17.84450 34451 ft 411 kts 306°
2026-04-26 10:41 50.93834 17.80828 34625 ft 411 kts 306°
2026-04-26 10:41 50.95553 17.77206 34817 ft 411 kts 306°
2026-04-26 10:42 50.97272 17.73576 35006 ft 412 kts 306°
2026-04-26 10:42 50.98411 17.71170 35126 ft 412 kts 306°
2026-04-26 10:42 51.00711 17.66302 35370 ft 412 kts 306°
2026-04-26 10:42 51.02433 17.62653 35555 ft 413 kts 306°
2026-04-26 10:43 51.04152 17.59003 35734 ft 413 kts 306°
2026-04-26 10:43 51.05871 17.55349 35913 ft 413 kts 306°
2026-04-26 10:43 51.07588 17.51693 36078 ft 413 kts 306°
2026-04-26 10:43 51.09312 17.48019 36217 ft 415 kts 305°
2026-04-26 10:44 51.11013 17.44386 36381 ft 415 kts 305°
2026-04-26 10:44 51.12745 17.40683 36556 ft 416 kts 305°
2026-04-26 10:44 51.14534 17.37064 36708 ft 417 kts 310°
2026-04-26 10:44 51.16654 17.33898 36855 ft 420 kts 319°
2026-04-26 10:45 51.19097 17.31292 37019 ft 424 kts 327°
2026-04-26 10:45 51.21789 17.29320 37183 ft 429 kts 335°
2026-04-26 10:45 51.24592 17.27664 37345 ft 429 kts 335°
2026-04-26 10:45 51.27390 17.25977 37496 ft 430 kts 335°
2026-04-26 10:46 51.30192 17.24270 37683 ft 430 kts 335°
2026-04-26 10:46 51.32984 17.22563 37863 ft 429 kts 335°
2026-04-26 10:46 51.35772 17.20857 38055 ft 429 kts 335°
2026-04-26 10:46 51.38567 17.19145 38206 ft 430 kts 335°
2026-04-26 10:47 51.44112 17.15745 38229 ft 428 kts 335°
2026-04-26 10:47 51.49690 17.12317 38258 ft 429 kts 335°
2026-04-26 10:48 51.55272 17.08877 38261 ft 429 kts 335°
2026-04-26 10:48 51.60854 17.05430 38253 ft 430 kts 335°
2026-04-26 10:49 51.66404 17.01992 38249 ft 430 kts 335°
2026-04-26 10:49 51.72002 16.98516 38250 ft 431 kts 335°
2026-04-26 10:50 51.76645 16.95626 38251 ft 431 kts 335°
2026-04-26 10:50 51.82803 16.90497 38251 ft 423 kts 317°
2026-04-26 10:51 51.84816 16.87067 38250 ft 421 kts 306°
2026-04-26 10:51 51.86976 16.80059 38247 ft 421 kts 287°
2026-04-26 10:52 51.88395 16.70851 38249 ft 422 kts 287°
2026-04-26 10:52 51.90592 16.60411 38251 ft 421 kts 291°
2026-04-26 10:53 51.92390 16.53015 38254 ft 421 kts 292°
2026-04-26 10:53 51.94545 16.44256 38255 ft 421 kts 292°
2026-04-26 10:54 51.97775 16.31009 38266 ft 421 kts 292°
2026-04-26 10:54 51.99917 16.22165 38262 ft 421 kts 292°
2026-04-26 10:55 52.02050 16.13318 38265 ft 420 kts 292°
2026-04-26 10:55 52.04173 16.04478 38266 ft 420 kts 292°
2026-04-26 10:56 52.06291 15.95622 38275 ft 420 kts 292°
2026-04-26 10:56 52.08397 15.86786 38265 ft 419 kts 292°
2026-04-26 10:57 52.10482 15.77995 38271 ft 419 kts 291°
2026-04-26 10:57 52.12577 15.69130 38269 ft 419 kts 291°
2026-04-26 10:58 52.14662 15.60267 38268 ft 418 kts 291°
2026-04-26 10:58 52.16733 15.51425 38268 ft 418 kts 291°
2026-04-26 10:59 52.18785 15.42633 38274 ft 417 kts 291°
2026-04-26 10:59 52.20840 15.33791 38271 ft 417 kts 291°
2026-04-26 11:00 52.22887 15.24944 38272 ft 417 kts 291°
2026-04-26 11:00 52.24925 15.16096 38282 ft 416 kts 291°
2026-04-26 11:01 52.26960 15.07230 38276 ft 416 kts 291°
2026-04-26 11:01 52.28984 14.98376 38275 ft 416 kts 291°
2026-04-26 11:02 52.31005 14.89494 38274 ft 417 kts 291°
2026-04-26 11:02 52.33018 14.80609 38276 ft 417 kts 291°
2026-04-26 11:03 52.35012 14.71771 38276 ft 417 kts 291°
2026-04-26 11:03 52.37013 14.62869 38283 ft 417 kts 291°
2026-04-26 11:04 52.39090 14.54006 38284 ft 417 kts 294°
2026-04-26 11:04 52.41549 14.45407 38283 ft 417 kts 295°
2026-04-26 11:05 52.43999 14.36790 38285 ft 417 kts 295°
2026-04-26 11:05 52.46395 14.28126 38284 ft 417 kts 294°
2026-04-26 11:06 52.48771 14.19449 38286 ft 417 kts 294°
2026-04-26 11:06 52.51132 14.10796 38291 ft 417 kts 294°
2026-04-26 11:07 52.53505 14.02075 38287 ft 418 kts 294°
2026-04-26 11:07 52.55866 13.93361 38309 ft 418 kts 294°
2026-04-26 11:08 52.58223 13.84631 38295 ft 418 kts 294°
2026-04-26 11:08 52.60575 13.75884 38287 ft 418 kts 294°
2026-04-26 11:09 52.62919 13.67137 38294 ft 417 kts 294°
2026-04-26 11:09 52.65241 13.58433 38314 ft 417 kts 294°
2026-04-26 11:10 52.67571 13.49670 38307 ft 417 kts 294°
2026-04-26 11:10 52.69895 13.40896 38279 ft 417 kts 294°
2026-04-26 11:11 52.72213 13.32110 38301 ft 417 kts 294°
2026-04-26 11:11 52.74510 13.23368 38306 ft 417 kts 294°
2026-04-26 11:12 52.76813 13.14573 38302 ft 417 kts 294°
2026-04-26 11:12 52.79110 13.05769 38302 ft 417 kts 294°
2026-04-26 11:13 52.81404 12.96933 38305 ft 417 kts 294°
2026-04-26 11:13 52.83673 12.88164 38305 ft 417 kts 294°
2026-04-26 11:14 52.85954 12.79382 38309 ft 417 kts 295°
2026-04-26 11:14 52.88923 12.71123 38307 ft 417 kts 301°
2026-04-26 11:15 52.91995 12.62955 38310 ft 417 kts 302°
2026-04-26 11:15 52.93548 12.58880 38159 ft 418 kts 302°
2026-04-26 11:15 52.95112 12.54794 37876 ft 417 kts 302°
2026-04-26 11:16 52.96646 12.50787 37611 ft 416 kts 302°
2026-04-26 11:16 52.98197 12.46732 37352 ft 416 kts 302°
2026-04-26 11:16 52.99754 12.42652 37077 ft 417 kts 302°
2026-04-26 11:16 53.01306 12.38582 36809 ft 417 kts 302°
2026-04-26 11:17 53.02857 12.34505 36552 ft 417 kts 301°
2026-04-26 11:17 53.04410 12.30415 36293 ft 418 kts 301°
2026-04-26 11:17 53.05962 12.26320 36031 ft 418 kts 301°
2026-04-26 11:17 53.07490 12.22283 35792 ft 418 kts 301°
2026-04-26 11:18 53.09046 12.18167 35556 ft 418 kts 301°
2026-04-26 11:18 53.10591 12.14074 35301 ft 419 kts 301°
2026-04-26 11:18 53.12137 12.09968 35051 ft 419 kts 301°
2026-04-26 11:18 53.13690 12.05839 34809 ft 419 kts 301°
2026-04-26 11:19 53.15235 12.01723 34569 ft 419 kts 301°
2026-04-26 11:19 53.16780 11.97601 34331 ft 419 kts 301°
2026-04-26 11:19 53.18325 11.93473 34057 ft 420 kts 301°
2026-04-26 11:19 53.19853 11.89383 33571 ft 421 kts 301°
2026-04-26 11:20 53.21409 11.85211 32565 ft 424 kts 301°
2026-04-26 11:20 53.22450 11.82416 31676 ft 429 kts 301°
2026-04-26 11:20 53.24571 11.76711 30195 ft 430 kts 301°
2026-04-26 11:20 53.26118 11.72542 29337 ft 424 kts 301°
2026-04-26 11:21 53.27656 11.68390 28799 ft 415 kts 301°
2026-04-26 11:21 53.29152 11.64347 28497 ft 402 kts 301°
2026-04-26 11:21 53.30609 11.60402 27875 ft 397 kts 301°
2026-04-26 11:21 53.32036 11.56532 27218 ft 393 kts 301°
2026-04-26 11:22 53.33463 11.52655 26570 ft 389 kts 301°
2026-04-26 11:22 53.34874 11.48818 25913 ft 385 kts 301°
2026-04-26 11:22 53.36271 11.45009 25273 ft 382 kts 301°
2026-04-26 11:22 53.37660 11.41221 24629 ft 379 kts 301°
2026-04-26 11:23 53.39040 11.37451 23977 ft 377 kts 301°
2026-04-26 11:23 53.40405 11.33715 23294 ft 373 kts 301°
2026-04-26 11:23 53.41746 11.30040 22650 ft 367 kts 301°
2026-04-26 11:23 53.43065 11.26419 22026 ft 361 kts 301°
2026-04-26 11:24 53.44296 11.23038 21446 ft 356 kts 301°
2026-04-26 11:24 53.45562 11.19551 20815 ft 352 kts 301°
2026-04-26 11:24 53.46838 11.16031 20201 ft 347 kts 301°
2026-04-26 11:24 53.48068 11.12631 19575 ft 342 kts 301°
2026-04-26 11:25 53.49300 11.09224 18928 ft 340 kts 301°
2026-04-26 11:25 53.50518 11.05856 18312 ft 335 kts 301°
2026-04-26 11:25 53.51712 11.02545 17725 ft 328 kts 301°
2026-04-26 11:25 53.52885 10.99289 17148 ft 322 kts 301°
2026-04-26 11:26 53.54021 10.96125 16566 ft 317 kts 301°
2026-04-26 11:26 53.55153 10.92974 15986 ft 312 kts 301°
2026-04-26 11:26 53.56272 10.89855 15417 ft 310 kts 301°
2026-04-26 11:26 53.57437 10.86603 14882 ft 335 kts 301°
2026-04-26 11:27 53.58656 10.83199 14538 ft 339 kts 301°
2026-04-26 11:27 53.59869 10.79808 13738 ft 345 kts 301°
2026-04-26 11:27 53.61111 10.76328 12901 ft 345 kts 301°
2026-04-26 11:27 53.62340 10.72883 12232 ft 336 kts 301°
2026-04-26 11:28 53.63341 10.69393 11617 ft 328 kts 289°
2026-04-26 11:28 53.63613 10.65628 11077 ft 323 kts 270°
2026-04-26 11:28 53.63127 10.61993 10907 ft 325 kts 256°
2026-04-26 11:28 53.62399 10.58370 10856 ft 323 kts 256°
2026-04-26 11:29 53.61715 10.54862 10746 ft 311 kts 257°
2026-04-26 11:29 53.61069 10.51480 10627 ft 295 kts 257°
2026-04-26 11:29 53.60458 10.48280 10478 ft 277 kts 257°
2026-04-26 11:29 53.59888 10.45294 10069 ft 268 kts 257°
2026-04-26 11:30 53.59326 10.42329 9703 ft 264 kts 257°
2026-04-26 11:30 53.58958 10.40356 9557 ft 272 kts 257°
2026-04-26 11:30 53.58180 10.36172 9469 ft 280 kts 256°
2026-04-26 11:30 53.57582 10.33061 9398 ft 278 kts 256°
2026-04-26 11:31 53.56982 10.29951 9313 ft 279 kts 255°
2026-04-26 11:31 53.56392 10.26883 9241 ft 279 kts 255°
2026-04-26 11:31 53.55791 10.23782 9159 ft 279 kts 255°
2026-04-26 11:31 53.55191 10.20679 9095 ft 278 kts 255°
2026-04-26 11:32 53.54593 10.17579 9029 ft 279 kts 255°
2026-04-26 11:32 53.53988 10.14475 8951 ft 278 kts 255°
2026-04-26 11:32 53.53393 10.11418 8827 ft 278 kts 255°
2026-04-26 11:32 53.52782 10.08291 8682 ft 277 kts 255°
2026-04-26 11:33 53.52198 10.05307 8586 ft 265 kts 255°
2026-04-26 11:33 53.51638 10.02446 8466 ft 250 kts 255°
2026-04-26 11:33 53.51098 9.99675 8316 ft 259 kts 255°
2026-04-26 11:33 53.50510 9.96654 8157 ft 277 kts 253°
2026-04-26 11:34 53.49686 9.93768 8025 ft 277 kts 240°
2026-04-26 11:34 53.48503 9.91185 7887 ft 280 kts 231°
2026-04-26 11:34 53.47234 9.88722 7671 ft 278 kts 231°
2026-04-26 11:34 53.45995 9.86288 7295 ft 270 kts 231°
2026-04-26 11:35 53.44801 9.83917 6918 ft 261 kts 231°
2026-04-26 11:35 53.43651 9.81619 6542 ft 253 kts 231°
2026-04-26 11:35 53.42525 9.79375 6143 ft 248 kts 232°
2026-04-26 11:35 53.41801 9.77886 5881 ft 246 kts 232°
2026-04-26 11:36 53.40367 9.74969 5361 ft 242 kts 231°
2026-04-26 11:36 53.39301 9.72829 4966 ft 238 kts 230°
2026-04-26 11:36 53.38241 9.70718 4577 ft 234 kts 230°
2026-04-26 11:36 53.37211 9.68667 4351 ft 226 kts 230°
2026-04-26 11:37 53.36184 9.66631 4138 ft 231 kts 230°
2026-04-26 11:37 53.35378 9.64393 3994 ft 225 kts 253°
2026-04-26 11:37 53.35309 9.61766 3993 ft 229 kts 282°
2026-04-26 11:37 53.36030 9.59423 3986 ft 228 kts 312°
2026-04-26 11:38 53.37361 9.58011 3992 ft 230 kts 343°
2026-04-26 11:38 53.38922 9.57941 3988 ft 228 kts 17°
2026-04-26 11:38 53.40237 9.59234 3991 ft 213 kts 39°
2026-04-26 11:38 53.41353 9.60793 3991 ft 209 kts 41°
2026-04-26 11:39 53.42511 9.62276 3987 ft 209 kts 28°
2026-04-26 11:39 53.43844 9.63295 4020 ft 211 kts 24°
2026-04-26 11:39 53.45142 9.64318 3816 ft 205 kts 31°
2026-04-26 11:39 53.46165 9.65873 3747 ft 189 kts 47°
2026-04-26 11:40 53.47024 9.67466 3670 ft 185 kts 49°
2026-04-26 11:40 53.47860 9.69043 3569 ft 175 kts 49°
2026-04-26 11:40 53.48641 9.70525 3503 ft 162 kts 49°
2026-04-26 11:40 53.49356 9.71875 3421 ft 157 kts 48°
2026-04-26 11:41 53.50084 9.73246 3336 ft 154 kts 49°
2026-04-26 11:42 53.55030 9.82779 2238 ft 153 kts 49°
2026-04-26 11:43 53.55497 9.83693 2099 ft 155 kts 49°
2026-04-26 11:43 53.56186 9.85048 1898 ft 155 kts 50°
2026-04-26 11:43 53.57095 9.86849 1617 ft 151 kts 49°
2026-04-26 11:43 53.57565 9.87765 1474 ft 155 kts 49°
2026-04-26 11:44 53.58241 9.89110 1256 ft 147 kts 50°
2026-04-26 11:44 53.58921 9.90489 1054 ft 154 kts 50°
2026-04-26 11:44 53.59596 9.91836 787 ft 150 kts 50°
2026-04-26 11:44 53.60274 9.93197 652 ft 149 kts 50°
2026-04-26 11:45 53.60934 9.94552 426 ft 148 kts 51°
2026-04-26 11:45 53.61584 9.95897 214 ft 149 kts 51°
2026-04-26 11:45 53.62246 9.97224 66 ft 144 kts 51°
2026-04-26 11:45 53.62825 9.98405 50 ft 113 kts 50°
2026-04-26 11:46 53.63264 9.99291 50 ft 78 kts 50°
2026-04-26 11:46 53.63460 9.99682 53 ft 39 kts 50°
2026-04-26 11:46 53.63564 9.99894 51 ft 14 kts 52°
2026-04-26 11:46 53.63541 10.00022 53 ft 12 kts 129°
2026-04-26 11:47 53.63474 10.00122 48 ft 12 kts 142°
2026-04-26 11:47 53.63432 10.00231 54 ft 11 kts 107°
2026-04-26 11:47 53.63425 10.00290 54 ft 2 kts 100°
2026-04-26 11:47 53.63421 10.00333 56 ft 5 kts 101°
2026-04-26 11:48 53.63420 10.00341 56 ft 0 kts 101°